Location: Bemmer
(51.5498°N, 5.6249°E)
Time: 13:04:29
(UTC+00:00)

Cosmos 192 - Pass Details

Date: 03 March 2021
Orbit: 700 x 714 km, 74.0° (Epoch: 11 April)

Event Time Altitude Azimuth Distance (km) Brightness Sun altitude
Rises 19:15:52 0° 187° (S) 3,075 7.6 -18.5°
Reaches altitude 10° 19:18:14 10° 182° (S) 2,163 6.7 -18.8°
Maximum altitude 19:22:56 50° 107° (ESE) 895 4.4 -19.5°
Drops below altitude 10° 19:27:41 10° 33° (NNE) 2,185 6.7 -20.2°
Sets 19:30:04 0° 29° (NNE) 3,110 7.5 -20.6°
